Anchorage, AK

2:36 PM AKST on February 25, 2017 (GMT -0900)
Ted Stevens Anchorage Int'l Airport

Weather History for PANC - April, 2013

Change the Weather History Date:

Sunday, April 14, 2013

  Actual Average Record
Temperature  
Mean Temperature 26 °F 36 °F  
Max Temperature 37 °F 44 °F 53 °F (2016)
Min Temperature 15 °F 29 °F 8 °F (1985)
Degree Days  
Heating Degree Days 39    
Month to date heating degree days 559  
Since 1 July heating degree days 9251  
Cooling Degree Days 0    
Month to date cooling degree days 0  
Year to date cooling degree days 0  
Moisture  
Dew Point 10 °F    
Average Humidity 56    
Maximum Humidity 80    
Minimum Humidity 31    
Precipitation  
Precipitation 0.00 in 0.02 in 0.48 in (2010)
Month to date precipitation 0.75 0.21  
Year to date precipitation 4.57 2.26  
Snow  
Snow 0.00 in 0.20 in 9.00 in (2010)
Month to date snowfall 14.7 2.5  
Since 1 July snowfall 91.4 72.7  
Snow Depth 19.00 in    
Sea Level Pressure  
Sea Level Pressure 30.47 in    
Wind  
Wind Speed 2 mph (WSW)    
Max Wind Speed 7 mph    
Max Gust Speed -    
Visibility 10 miles    
Events      
T = Trace of Precipitation, MM = Missing Value Source: NWS Daily Summary

Daily Weather History Graph

Daily Weather History Graph

Search for Another Location

Airport or City:

Trip Planner

Search our weather history database for the weather conditions in past years. The results will help you decide how hot, cold, wet, or windy it might be!

Date:

Astronomy

Apr. 14, 2013 Rise Set
Actual Time 6:41 AM AKDT 9:20 PM AKDT
Civil Twilight 5:52 AM AKDT 10:09 PM AKDT
Nautical Twilight 4:47 AM AKDT 11:15 PM AKDT
Astronomical Twilight 3:08 AM AKDT 1:00 AM AKDT
Moon 8:30 AM AKDT (4/14) 1:45 AM AKDT (4/14)
Length of Visible Light 16h 16m
Length of Day
14h 39m
Waxing Crescent, 18% of the Moon is Illuminated
Apr 14
Waxing Crescent
Apr 18
First Quarter
Apr 25
Full
May 2
Last Quarter
May 9
New

Hourly Weather History & Observations

Time (AKDT) Temp. Windchill Dew Point Humidity Pressure Visibility Wind Dir Wind Speed Gust Speed Precip Events Conditions
12:53 AM 21.0 °F 16.2 °F 12.0 °F 68% 30.42 in 10.0 mi SSE 3.5 mph - N/A   Mostly Cloudy
1:53 AM 23.0 °F - 14.0 °F 68% 30.42 in 10.0 mi Calm Calm - N/A   Mostly Cloudy
2:53 AM 23.0 °F - 12.9 °F 65% 30.43 in 10.0 mi Calm Calm - N/A   Mostly Cloudy
3:53 AM 21.9 °F - 10.9 °F 63% 30.45 in 10.0 mi Calm Calm - N/A   Mostly Cloudy
4:53 AM 21.0 °F - 14.0 °F 74% 30.45 in 10.0 mi Calm Calm - N/A   Scattered Clouds
5:53 AM 19.9 °F - 12.0 °F 71% 30.46 in 10.0 mi Calm Calm - N/A   Scattered Clouds
6:53 AM 18.0 °F - 10.0 °F 71% 30.48 in 10.0 mi Calm Calm - N/A   Scattered Clouds
7:53 AM 15.1 °F - 10.0 °F 80% 30.49 in 10.0 mi Calm Calm - N/A   Partly Cloudy
8:53 AM 21.0 °F - 10.0 °F 63% 30.50 in 10.0 mi Calm Calm - N/A   Clear
9:53 AM 27.0 °F - 7.0 °F 43% 30.51 in 10.0 mi Calm Calm - N/A   Clear
10:53 AM 24.1 °F 16.0 °F 8.1 °F 51% 30.51 in 10.0 mi WNW 6.9 mph - N/A   Clear
11:53 AM 26.1 °F 18.4 °F 7.0 °F 44% 30.52 in 10.0 mi NW 6.9 mph - N/A   Partly Cloudy
12:53 PM 30.0 °F 26.5 °F 3.0 °F 32% 30.53 in 10.0 mi WNW 3.5 mph - N/A   Partly Cloudy
1:53 PM 30.9 °F - 5.0 °F 33% 30.53 in 10.0 mi Calm Calm - N/A   Partly Cloudy
2:53 PM 35.1 °F - 6.1 °F 30% 30.51 in 10.0 mi Calm Calm - N/A   Partly Cloudy
3:53 PM 35.1 °F - 3.9 °F 27% 30.50 in 10.0 mi Calm Calm - N/A   Clear
4:53 PM 35.1 °F - 9.0 °F 34% 30.48 in 10.0 mi Calm Calm - 0.00 in   Clear
5:53 PM 34.0 °F 28.8 °F 10.9 °F 38% 30.47 in 10.0 mi West 5.8 mph - N/A   Clear
6:53 PM 36.0 °F 33.3 °F 7.0 °F 30% 30.46 in 10.0 mi SW 3.5 mph - N/A   Clear
7:53 PM 33.1 °F 28.7 °F 12.9 °F 43% 30.45 in 10.0 mi WSW 4.6 mph - N/A   Partly Cloudy
8:53 PM 32.0 °F - 12.9 °F 45% 30.45 in 10.0 mi Calm Calm - N/A   Partly Cloudy
9:53 PM 28.0 °F 24.2 °F 14.0 °F 56% 30.45 in 10.0 mi South 3.5 mph - N/A   Partly Cloudy
10:53 PM 25.0 °F 20.7 °F 12.9 °F 60% 30.45 in 10.0 mi South 3.5 mph - N/A   Partly Cloudy
11:53 PM 24.1 °F - 12.0 °F 60% 30.44 in 10.0 mi Calm Calm - N/A   Partly Cloudy